Location: Lombard
(41.8800°N, 88.0080°W)
Time: 12:52:37
(UTC-06:00)

Transit 4A - Pass Details

Date: 07 December 2023
Orbit: 870 x 973 km, 66.8° (Epoch: 02 March)

Event Time Altitude Azimuth Distance (km) Brightness Sun altitude
Rises 19:12:21 0° 208° (SSW) 3,653 11.4 -31.1°
Reaches altitude 10° 19:14:54 10° 208° (SSW) 2,710 10.6 -31.6°
Enters shadow 19:19:43 55° 208° (SSW) 1,156 8.4 -32.5°
Maximum altitude 19:21:17 89° 120° (ESE) 975 - -32.8°
Drops below altitude 10° 19:27:37 10° 30° (NNE) 2,697 - -33.9°
Sets 19:30:09 0° 31° (NNE) 3,634 - -34.4°
